Flag for Spain Weather past 2 weeks in Pamplona, Spain

Now
64 °F

Partly sunny.


Feels Like: 64 °F
Forecast: 55 / 83 °F
Wind: No wind

Location: Pamplona / Noain

Current Time: Jul 26, 2014 at 9:09:34 AM

Latest Report: Jul 26, 2014 at 8:30 AM


Visibility: 5 mi

Pressure: 30.07 "Hg

Humidity: 94%

Dew point: 63 °F

Location of PamplonaLocation

Historic Weather in Pamplona — Graph

°F

Pamplona temperature yesterday

Maximum temperature yesterday: 81 °F (at 4:30 PM)
Minimum temperature yesterday: 64 °F (at 5:30 AM)
Average temperature yesterday: 72 °F

Past Weeks' High & Low Weather Summary

 TemperatureHumidityPressure
High97 °F (Jul 17, 5:30 PM)100% (Jul 11, 7:30 AM)30.24 "Hg (Jul 11, 7:30 AM)
Low52 °F (Jul 13, 6:30 AM)22% (Jul 16, 7:00 PM)29.74 "Hg (Jul 18, 9:00 PM)
Average71 °F66%30.05 "Hg
* Reported Jul 11 7:00 AM — Jul 26 7:30 AM, Pamplona, Weather by CustomWeather, © 2014

Note: Actual official high and low records may vary slightly from our data, if they occured in-between our weather recording intervals... More about our weather records

Advertising

Pamplona weather history for previous 24 hours

 ConditionsComfort  
Time TempWeatherWind HumidityBarometerVisibility
7:30 AM
Jul 26
61 °FClear.No wind100%30.04 "Hg4 mi
7:00 AM61 °FClear.No wind100%30.04 "Hg4 mi
6:30 AM61 °FClear.No wind100%30.04 "Hg5 mi
6:00 AM63 °FClear.No wind94%30.04 "Hg6 mi
5:30 AM63 °FClear.2 mph94%30.01 "Hg6 mi
12:00 AM66 °FPassing clouds.6 mph88%30.01 "HgN/A
11:30 PM
Jul 25
68 °FPassing clouds.10 mph83%30.01 "HgN/A
11:00 PM68 °FPassing clouds.9 mph83%30.01 "HgN/A
10:30 PM68 °FPassing clouds.8 mph83%30.01 "HgN/A
10:00 PM70 °FPassing clouds.10 mph78%29.98 "HgN/A
9:30 PM72 °FPassing clouds.7 mph73%29.98 "HgN/A
9:00 PM73 °FPassing clouds.6 mph69%29.98 "HgN/A
8:30 PM75 °FPassing clouds.10 mph61%29.95 "HgN/A
8:00 PM77 °FPassing clouds.10 mph57%29.95 "HgN/A
7:30 PM77 °FPassing clouds.14 mph61%29.95 "HgN/A
7:00 PM79 °FPassing clouds.13 mph58%29.95 "HgN/A
6:30 PM79 °FPassing clouds.13 mph61%29.95 "HgN/A
6:00 PM81 °FPassing clouds.14 mph54%29.95 "HgN/A
5:30 PM81 °FPassing clouds.10 mph54%29.95 "HgN/A
5:00 PM81 °FPassing clouds.8 mph51%29.92 "HgN/A
4:30 PM81 °FPassing clouds.5 mph58%29.95 "HgN/A
4:00 PM79 °FPassing clouds.5 mph61%29.95 "HgN/A
3:30 PM77 °FPassing clouds.7 mph61%29.95 "HgN/A
3:00 PM77 °FPassing clouds.7 mph65%29.95 "HgN/A
2:30 PM73 °FPassing clouds.8 mph69%29.98 "HgN/A
2:00 PM73 °FThundershowers. Passing clouds.10 mph69%29.98 "HgN/A
1:46 PM75 °FThundershowers. Passing clouds.8 mph69%29.98 "HgN/A
1:30 PM75 °FPassing clouds.5 mph65%29.98 "HgN/A
1:00 PM75 °FPassing clouds.3 mph65%29.98 "HgN/A
12:30 PM73 °FPassing clouds.2 mph74%29.98 "HgN/A
12:00 PM73 °FScattered clouds.1 mph69%29.98 "HgN/A
11:30 AM72 °FScattered clouds.2 mph73%29.98 "HgN/A
11:00 AM72 °FScattered clouds.No wind78%29.98 "HgN/A
10:30 AM70 °FPassing clouds.No wind88%29.98 "Hg5 mi
10:00 AM68 °FPassing clouds.1 mph94%29.98 "Hg5 mi
9:30 AM68 °FScattered clouds.No wind100%29.98 "Hg5 mi
9:00 AM66 °FScattered clouds.No wind100%29.98 "Hg5 mi
Weather by CustomWeather, © 2014

See weather overviewHow to use our weather pages